Time,TemperatureF,DewpointF,PressureIn,WindDirection,WindDirectionDegrees,WindSpeedMPH,WindSpeedGustMPH,Humidity,HourlyPrecipIn,Conditions,Clouds,dailyrainin,SoftwareType,DateUTC
2013-01-01 00:01:00,72.9,50.7,26.99,East,91,6.3,9.2,36,0.00,,---,0.00,VWS V14.01,2013-01-01 06:01:00,
2013-01-01 00:06:00,72.9,50.7,26.99,SE,124,8.7,8.7,36,0.00,,---,0.00,VWS V14.01,2013-01-01 06:06:00,
2013-01-01 00:11:00,72.9,50.7,27.02,SE,146,8.1,8.1,36,0.00,,---,0.00,VWS V14.01,2013-01-01 06:11:00,
2013-01-01 00:16:00,72.9,50.7,27.02,ESE,107,5.4,5.4,36,0.00,,---,0.00,VWS V14.01,2013-01-01 06:16:00,
2013-01-01 00:21:00,72.9,50.7,27.02,ESE,122,5.4,8.7,36,0.00,,---,0.00,VWS V14.01,2013-01-01 06:21:00,
2013-01-01 00:26:00,72.9,50.7,27.02,ESE,107,4.9,6.3,36,0.00,,---,0.00,VWS V14.01,2013-01-01 06:26:00,
2013-01-01 00:31:00,72.9,50.7,27.02,SSE,154,3.6,8.1,36,0.00,,---,0.00,VWS V14.01,2013-01-01 06:31:00,
2013-01-01 00:36:00,72.9,50.7,27.02,SE,131,6.3,7.6,36,0.00,,---,0.00,VWS V14.01,2013-01-01 06:36:00,
2013-01-01 00:41:00,72.9,50.7,26.99,SE,137,4.0,7.2,36,0.00,,---,0.00,VWS V14.01,2013-01-01 06:41:00,
2013-01-01 00:46:00,72.9,50.7,26.99,SSE,148,10.1,10.1,36,0.00,,---,0.00,VWS V14.01,2013-01-01 06:46:00,
2013-01-01 00:51:00,72.9,50.7,26.99,ESE,105,3.6,8.1,36,0.00,,---,0.00,VWS V14.01,2013-01-01 06:51:00,
2013-01-01 00:56:00,72.9,50.7,27.02,SSE,163,4.0,4.9,36,0.00,,---,0.00,VWS V14.01,2013-01-01 06:56:00,
2013-01-01 01:01:00,72.9,50.7,27.02,SSE,157,7.6,8.3,36,0.00,,---,0.00,VWS V14.01,2013-01-01 07:01:00,
2013-01-01 01:06:00,72.9,50.7,27.02,South,176,5.4,6.3,36,0.00,,---,0.00,VWS V14.01,2013-01-01 07:06:00,
2013-01-01 01:11:00,72.9,50.7,26.99,ESE,120,3.6,4.0,36,0.00,,---,0.00,VWS V14.01,2013-01-01 07:11:00,
2013-01-01 01:16:00,72.9,50.7,26.99,SSE,155,4.9,5.4,36,0.00,,---,0.00,VWS V14.01,2013-01-01 07:16:00,
2013-01-01 01:21:00,72.9,50.7,26.99,ESE,120,4.9,5.8,36,0.00,,---,0.00,VWS V14.01,2013-01-01 07:21:00,
2013-01-01 01:26:00,72.9,50.7,26.99,ESE,114,4.9,7.6,36,0.00,,---,0.00,VWS V14.01,2013-01-01 07:26:00,
2013-01-01 01:31:00,72.9,50.7,26.99,SE,127,4.0,4.0,36,0.00,,---,0.00,VWS V14.01,2013-01-01 07:31:00,
2013-01-01 01:36:00,72.9,50.7,26.99,ESE,116,6.3,8.1,36,0.00,,---,0.00,VWS V14.01,2013-01-01 07:36:00,
2013-01-01 01:41:00,72.9,50.7,26.99,SE,133,2.7,13.2,36,0.00,,---,0.00,VWS V14.01,2013-01-01 07:41:00,
2013-01-01 01:46:00,72.9,50.7,26.99,SE,136,4.0,8.7,36,0.00,,---,0.00,VWS V14.01,2013-01-01 07:46:00,
2013-01-01 01:51:00,72.9,50.7,26.99,SE,136,5.4,5.8,36,0.00,,---,0.00,VWS V14.01,2013-01-01 07:51:00,
2013-01-01 01:56:00,72.9,50.7,26.99,SSE,151,8.1,8.1,36,0.00,,---,0.00,VWS V14.01,2013-01-01 07:56:00,
2013-01-01 02:01:00,72.9,50.7,26.99,SSE,153,3.6,7.6,36,0.00,,---,0.00,VWS V14.01,2013-01-01 08:01:00,
2013-01-01 02:06:00,72.9,50.7,26.99,SSE,147,4.0,4.9,36,0.00,,---,0.00,VWS V14.01,2013-01-01 08:06:00,
2013-01-01 02:11:00,72.9,50.7,26.99,SE,136,2.7,6.3,36,0.00,,---,0.00,VWS V14.01,2013-01-01 08:11:00,
2013-01-01 02:16:00,72.9,50.7,26.99,SE,131,10.1,10.1,36,0.00,,---,0.00,VWS V14.01,2013-01-01 08:16:00,
2013-01-01 02:21:00,72.9,50.7,26.99,East,99,4.9,4.9,36,0.00,,---,0.00,VWS V14.01,2013-01-01 08:21:00,
2013-01-01 02:26:00,72.9,50.7,26.96,SE,130,3.1,7.6,36,0.00,,---,0.00,VWS V14.01,2013-01-01 08:26:00,
2013-01-01 02:31:00,72.9,50.7,26.96,East,97,3.6,6.7,36,0.00,,---,0.00,VWS V14.01,2013-01-01 08:31:00,
2013-01-01 02:36:00,72.9,50.7,26.96,ESE,105,4.0,5.8,36,0.00,,---,0.00,VWS V14.01,2013-01-01 08:36:00,
2013-01-01 02:41:00,72.9,50.7,26.99,SE,137,4.0,5.4,36,0.00,,---,0.00,VWS V14.01,2013-01-01 08:41:00,
2013-01-01 02:46:00,72.9,50.7,26.99,ESE,106,8.3,8.3,36,0.00,,---,0.00,VWS V14.01,2013-01-01 08:46:00,
2013-01-01 02:51:00,72.9,50.7,26.99,ESE,102,6.3,6.3,36,0.00,,---,0.00,VWS V14.01,2013-01-01 08:51:00,
2013-01-01 02:56:00,72.9,50.7,26.96,ESE,112,8.1,11.0,36,0.00,,---,0.00,VWS V14.01,2013-01-01 08:56:00,
2013-01-01 03:01:00,72.9,50.7,26.96,SSE,155,5.4,5.4,36,0.00,,---,0.00,VWS V14.01,2013-01-01 09:01:00,
2013-01-01 03:06:00,72.9,50.7,26.96,East,85,5.4,7.6,36,0.00,,---,0.00,VWS V14.01,2013-01-01 09:06:00,
2013-01-01 03:11:00,72.9,50.7,26.96,SSE,153,6.3,10.5,36,0.00,,---,0.00,VWS V14.01,2013-01-01 09:11:00,
2013-01-01 03:16:00,72.9,50.7,26.96,SSE,158,3.1,4.0,36,0.00,,---,0.00,VWS V14.01,2013-01-01 09:16:00,
2013-01-01 03:21:00,72.9,50.7,26.96,South,174,3.6,3.6,36,0.00,,---,0.00,VWS V14.01,2013-01-01 09:21:00,
2013-01-01 03:26:00,72.9,50.7,26.99,SSE,160,5.8,7.6,36,0.00,,---,0.00,VWS V14.01,2013-01-01 09:26:00,
2013-01-01 03:31:00,72.9,50.7,26.99,ESE,108,2.7,4.0,36,0.00,,---,0.00,VWS V14.01,2013-01-01 09:31:00,
2013-01-01 03:36:00,72.9,50.7,26.99,SE,135,8.1,8.1,36,0.00,,---,0.00,VWS V14.01,2013-01-01 09:36:00,
2013-01-01 03:41:00,72.9,50.7,26.99,NE,54,5.8,5.8,36,0.00,,---,0.00,VWS V14.01,2013-01-01 09:41:00,
2013-01-01 03:46:00,72.9,50.7,26.99,ESE,112,6.3,13.2,36,0.00,,---,0.00,VWS V14.01,2013-01-01 09:46:00,
2013-01-01 03:51:00,72.9,50.7,26.99,NW,311,4.0,12.8,36,0.00,,---,0.00,VWS V14.01,2013-01-01 09:51:00,
2013-01-01 03:56:00,72.9,50.7,26.99,SE,142,6.3,7.6,36,0.00,,---,0.00,VWS V14.01,2013-01-01 09:56:00,
2013-01-01 04:01:00,72.9,50.7,26.99,NE,44,3.1,5.8,36,0.00,,---,0.00,VWS V14.01,2013-01-01 10:01:00,
2013-01-01 04:06:00,72.9,50.7,26.99,SE,141,2.2,4.9,36,0.00,,---,0.00,VWS V14.01,2013-01-01 10:06:00,
2013-01-01 04:11:00,72.9,50.7,26.96,SSE,150,4.9,5.8,36,0.00,,---,0.00,VWS V14.01,2013-01-01 10:11:00,
2013-01-01 04:16:00,72.9,50.7,26.96,SE,144,3.1,6.3,36,0.00,,---,0.00,VWS V14.01,2013-01-01 10:16:00,
2013-01-01 04:21:00,72.9,50.7,26.96,SE,137,5.4,8.1,36,0.00,,---,0.00,VWS V14.01,2013-01-01 10:21:00,
2013-01-01 04:26:00,72.9,50.7,26.96,SE,128,3.1,8.3,36,0.00,,---,0.00,VWS V14.01,2013-01-01 10:26:00,
2013-01-01 04:31:00,72.9,50.7,26.96,SE,136,3.6,8.1,36,0.00,,---,0.00,VWS V14.01,2013-01-01 10:31:00,
2013-01-01 04:36:00,72.9,50.7,26.96,East,83,4.0,8.7,36,0.00,,---,0.00,VWS V14.01,2013-01-01 10:36:00,
2013-01-01 04:41:00,72.9,50.7,26.99,ESE,103,4.0,7.6,36,0.00,,---,0.00,VWS V14.01,2013-01-01 10:41:00,
2013-01-01 04:46:00,72.9,50.7,26.99,ESE,114,11.0,15.4,36,0.00,,---,0.00,VWS V14.01,2013-01-01 10:46:00,
2013-01-01 04:51:00,72.9,50.7,26.99,ESE,118,5.4,14.5,36,0.00,,---,0.00,VWS V14.01,2013-01-01 10:51:00,
2013-01-01 04:56:00,72.9,50.7,26.99,East,81,8.3,10.1,36,0.00,,---,0.00,VWS V14.01,2013-01-01 10:56:00,
2013-01-01 05:01:00,72.9,50.7,26.99,SE,144,5.8,8.1,36,0.00,,---,0.00,VWS V14.01,2013-01-01 11:01:00,
2013-01-01 05:06:00,72.9,50.7,26.99,ESE,106,5.4,6.3,36,0.00,,---,0.00,VWS V14.01,2013-01-01 11:06:00,
2013-01-01 05:11:00,72.9,50.7,26.99,SE,143,4.0,8.1,36,0.00,,---,0.00,VWS V14.01,2013-01-01 11:11:00,
2013-01-01 05:16:00,72.9,50.7,26.99,East,98,5.4,8.1,36,0.00,,---,0.00,VWS V14.01,2013-01-01 11:16:00,
2013-01-01 05:21:00,72.9,50.7,26.99,SSE,147,5.8,8.1,36,0.00,,---,0.00,VWS V14.01,2013-01-01 11:21:00,
2013-01-01 05:26:00,72.9,50.7,26.99,ESE,113,7.6,7.6,36,0.00,,---,0.00,VWS V14.01,2013-01-01 11:26:00,
2013-01-01 05:31:00,72.9,50.7,26.99,ESE,116,7.6,8.1,36,0.00,,---,0.00,VWS V14.01,2013-01-01 11:31:00,
2013-01-01 05:36:00,72.9,50.7,26.99,SSE,165,18.8,18.8,36,0.00,,---,0.00,VWS V14.01,2013-01-01 11:36:00,
2013-01-01 05:41:00,72.9,50.7,26.99,SE,126,8.3,8.7,36,0.00,,---,0.00,VWS V14.01,2013-01-01 11:41:00,
2013-01-01 05:46:00,72.9,50.7,26.99,East,93,10.5,10.5,36,0.00,,---,0.00,VWS V14.01,2013-01-01 11:46:00,
2013-01-01 05:51:00,72.9,50.7,26.99,SSE,153,8.7,13.2,36,0.00,,---,0.00,VWS V14.01,2013-01-01 11:51:00,
2013-01-01 05:56:00,72.9,50.7,26.99,SE,136,5.8,7.6,36,0.00,,---,0.00,VWS V14.01,2013-01-01 11:56:00,
2013-01-01 06:01:00,72.9,50.7,26.99,SSE,151,5.4,7.6,36,0.00,,---,0.00,VWS V14.01,2013-01-01 12:01:00,
2013-01-01 06:06:00,72.9,50.7,26.99,SSE,148,3.6,8.1,36,0.00,,---,0.00,VWS V14.01,2013-01-01 12:06:00,
2013-01-01 06:11:00,72.9,50.7,26.99,SSE,165,7.6,8.3,36,0.00,,---,0.00,VWS V14.01,2013-01-01 12:11:00,
2013-01-01 06:16:00,72.9,50.7,26.99,SSE,163,5.4,8.1,36,0.00,,---,0.00,VWS V14.01,2013-01-01 12:16:00,
2013-01-01 06:21:00,72.9,50.7,26.99,SSE,166,3.6,10.5,36,0.00,,---,0.00,VWS V14.01,2013-01-01 12:21:00,
2013-01-01 06:26:00,72.9,50.7,26.99,ESE,119,4.0,8.1,36,0.00,,---,0.00,VWS V14.01,2013-01-01 12:26:00,
2013-01-01 06:31:00,72.9,50.7,26.99,SE,145,8.3,11.9,36,0.00,,---,0.00,VWS V14.01,2013-01-01 12:31:00,
2013-01-01 06:36:00,72.9,50.7,26.99,NE,36,8.3,10.5,36,0.00,,---,0.00,VWS V14.01,2013-01-01 12:36:00,
2013-01-01 06:41:00,72.9,50.7,27.02,SE,135,5.4,10.1,36,0.00,,---,0.00,VWS V14.01,2013-01-01 12:41:00,
2013-01-01 06:46:00,72.9,50.7,27.02,SE,134,5.4,9.6,36,0.00,,---,0.00,VWS V14.01,2013-01-01 12:46:00,
2013-01-01 06:51:00,72.9,50.7,27.02,SE,146,8.7,14.5,36,0.00,,---,0.00,VWS V14.01,2013-01-01 12:51:00,
2013-01-01 06:56:00,72.9,50.7,27.02,SE,133,8.1,8.1,36,0.00,,---,0.00,VWS V14.01,2013-01-01 12:56:00,
2013-01-01 07:01:00,72.9,50.7,27.02,ESE,104,3.6,8.3,36,0.00,,---,0.00,VWS V14.01,2013-01-01 13:01:00,
2013-01-01 07:06:00,72.9,50.7,27.02,SE,131,8.1,13.2,36,0.00,,---,0.00,VWS V14.01,2013-01-01 13:06:00,
2013-01-01 07:11:00,72.9,50.7,27.02,SE,130,11.0,11.0,36,0.00,,---,0.00,VWS V14.01,2013-01-01 13:11:00,
2013-01-01 07:16:00,72.9,50.7,27.02,SE,139,8.7,15.0,36,0.00,,---,0.00,VWS V14.01,2013-01-01 13:16:00,
2013-01-01 07:21:00,72.9,50.7,27.02,ENE,77,10.5,12.3,36,0.00,,---,0.00,VWS V14.01,2013-01-01 13:21:00,
2013-01-01 07:26:00,72.9,50.7,27.02,SE,144,11.0,13.2,36,0.00,,---,0.00,VWS V14.01,2013-01-01 13:26:00,
2013-01-01 07:31:00,72.9,50.7,27.02,SSE,162,5.8,8.1,36,0.00,,---,0.00,VWS V14.01,2013-01-01 13:31:00,
2013-01-01 07:36:00,72.9,50.7,27.02,SSE,165,10.5,10.5,36,0.00,,---,0.00,VWS V14.01,2013-01-01 13:36:00,
2013-01-01 07:41:00,72.9,50.7,27.02,ESE,122,5.8,22.8,36,0.00,,---,0.00,VWS V14.01,2013-01-01 13:41:00,
2013-01-01 07:46:00,72.9,50.7,27.02,East,95,5.4,10.5,36,0.00,,---,0.00,VWS V14.01,2013-01-01 13:46:00,
2013-01-01 07:51:00,72.9,50.7,27.02,East,85,16.8,16.8,36,0.00,,---,0.00,VWS V14.01,2013-01-01 13:51:00,
2013-01-01 07:56:00,72.9,50.7,27.02,ENE,72,7.6,8.1,36,0.00,,---,0.00,VWS V14.01,2013-01-01 13:56:00,
2013-01-01 08:01:00,72.9,50.7,27.02,East,97,10.1,10.1,36,0.00,,---,0.00,VWS V14.01,2013-01-01 14:01:00,
2013-01-01 08:06:00,72.9,50.7,27.02,ESE,106,6.3,16.3,36,0.00,,---,0.00,VWS V14.01,2013-01-01 14:06:00,
2013-01-01 08:11:00,72.9,50.7,27.02,East,87,10.5,10.5,36,0.00,,---,0.00,VWS V14.01,2013-01-01 14:11:00,
2013-01-01 08:16:00,72.9,50.7,27.02,East,93,7.6,8.3,36,0.00,,---,0.00,VWS V14.01,2013-01-01 14:16:00,
2013-01-01 08:21:00,72.9,50.7,27.02,ENE,62,12.3,12.3,36,0.00,,---,0.00,VWS V14.01,2013-01-01 14:21:00,
2013-01-01 08:26:00,72.9,50.7,27.02,ESE,103,10.1,15.0,36,0.00,,---,0.00,VWS V14.01,2013-01-01 14:26:00,
2013-01-01 08:31:00,72.9,50.7,27.02,ESE,109,13.2,22.4,36,0.00,,---,0.00,VWS V14.01,2013-01-01 14:31:00,
2013-01-01 08:36:00,72.9,50.7,27.02,NE,50,8.3,11.9,36,0.00,,---,0.00,VWS V14.01,2013-01-01 14:36:00,
2013-01-01 08:41:00,72.9,50.7,27.02,East,96,12.3,12.3,36,0.00,,---,0.00,VWS V14.01,2013-01-01 14:41:00,
2013-01-01 08:46:00,72.9,50.7,27.02,ESE,106,5.4,15.0,36,0.00,,---,0.00,VWS V14.01,2013-01-01 14:46:00,
2013-01-01 08:51:00,72.9,50.7,27.02,East,98,6.3,15.4,36,0.00,,---,0.00,VWS V14.01,2013-01-01 14:51:00,
2013-01-01 08:56:00,72.9,50.7,27.02,ENE,70,7.6,15.0,36,0.00,,---,0.00,VWS V14.01,2013-01-01 14:56:00,
2013-01-01 09:01:00,72.9,50.7,27.02,ESE,109,8.1,12.8,36,0.00,,---,0.00,VWS V14.01,2013-01-01 15:01:00,
2013-01-01 09:06:00,72.9,50.7,27.02,ENE,68,11.4,11.4,36,0.00,,---,0.00,VWS V14.01,2013-01-01 15:06:00,
2013-01-01 09:11:00,72.9,50.7,27.02,South,177,4.9,9.6,36,0.00,,---,0.00,VWS V14.01,2013-01-01 15:11:00,
2013-01-01 09:16:00,72.9,50.7,27.02,ESE,107,5.8,5.8,36,0.00,,---,0.00,VWS V14.01,2013-01-01 15:16:00,
2013-01-01 09:21:00,72.9,50.7,27.02,East,87,8.1,10.5,36,0.00,,---,0.00,VWS V14.01,2013-01-01 15:21:00,
2013-01-01 09:26:00,72.9,50.7,27.05,East,96,8.3,14.1,36,0.00,,---,0.00,VWS V14.01,2013-01-01 15:26:00,
2013-01-01 09:31:00,72.9,50.7,27.05,SE,143,6.3,9.6,36,0.00,,---,0.00,VWS V14.01,2013-01-01 15:31:00,
2013-01-01 09:36:00,72.9,50.7,27.05,ESE,110,8.1,8.3,36,0.00,,---,0.00,VWS V14.01,2013-01-01 15:36:00,
2013-01-01 09:41:00,72.9,50.7,27.05,ESE,114,5.8,7.6,36,0.00,,---,0.00,VWS V14.01,2013-01-01 15:41:00,
2013-01-01 09:46:00,72.9,50.7,27.05,ESE,116,8.3,13.2,36,0.00,,---,0.00,VWS V14.01,2013-01-01 15:46:00,
2013-01-01 09:51:00,72.9,50.7,27.05,East,98,10.1,10.1,36,0.00,,---,0.00,VWS V14.01,2013-01-01 15:51:00,
2013-01-01 09:56:00,72.9,50.7,27.05,ESE,114,6.3,6.3,36,0.00,,---,0.00,VWS V14.01,2013-01-01 15:56:00,
2013-01-01 10:01:00,72.9,50.7,27.05,SSE,150,7.6,7.6,36,0.00,,---,0.00,VWS V14.01,2013-01-01 16:01:00,
2013-01-01 10:06:00,72.9,50.7,27.05,SE,132,5.4,5.8,36,0.00,,---,0.00,VWS V14.01,2013-01-01 16:06:00,
2013-01-01 10:11:00,72.9,50.7,27.05,NE,50,3.6,6.7,36,0.00,,---,0.00,VWS V14.01,2013-01-01 16:11:00,
2013-01-01 10:16:00,72.9,50.7,27.05,ESE,116,4.0,7.6,36,0.00,,---,0.00,VWS V14.01,2013-01-01 16:16:00,
2013-01-01 10:21:00,72.9,50.7,27.05,ESE,108,6.3,6.3,36,0.00,,---,0.00,VWS V14.01,2013-01-01 16:21:00,
2013-01-01 10:26:00,72.9,50.7,27.05,ENE,72,9.2,9.2,36,0.00,,---,0.00,VWS V14.01,2013-01-01 16:26:00,
2013-01-01 10:31:00,72.9,50.7,27.05,ESE,123,4.0,8.3,36,0.00,,---,0.00,VWS V14.01,2013-01-01 16:31:00,
2013-01-01 10:36:00,72.9,50.7,27.05,SE,137,5.8,8.1,36,0.00,,---,0.00,VWS V14.01,2013-01-01 16:36:00,
2013-01-01 10:41:00,72.9,50.7,27.02,East,91,7.6,7.6,36,0.00,,---,0.00,VWS V14.01,2013-01-01 16:41:00,
2013-01-01 10:46:00,72.9,50.7,27.02,SSW,203,3.6,8.7,36,0.00,,---,0.00,VWS V14.01,2013-01-01 16:46:00,
2013-01-01 10:51:00,72.9,50.7,27.02,ESE,123,8.1,12.8,36,0.00,,---,0.00,VWS V14.01,2013-01-01 16:51:00,
2013-01-01 10:56:00,72.9,50.7,27.02,East,98,8.1,8.3,36,0.00,,---,0.00,VWS V14.01,2013-01-01 16:56:00,
2013-01-01 11:01:00,72.9,50.7,27.02,SSE,160,8.1,9.6,36,0.00,,---,0.00,VWS V14.01,2013-01-01 17:01:00,
2013-01-01 11:06:00,72.9,50.7,27.02,ENE,70,11.9,12.8,36,0.00,,---,0.00,VWS V14.01,2013-01-01 17:06:00,
2013-01-01 11:11:00,72.9,50.7,27.02,ESE,108,4.9,4.9,36,0.00,,---,0.00,VWS V14.01,2013-01-01 17:11:00,
2013-01-01 11:16:00,72.9,50.7,27.02,ESE,110,3.1,11.0,36,0.00,,---,0.00,VWS V14.01,2013-01-01 17:16:00,
2013-01-01 11:21:00,72.9,50.7,27.02,ESE,117,10.1,10.1,36,0.00,,---,0.00,VWS V14.01,2013-01-01 17:21:00,
2013-01-01 11:26:00,72.9,50.7,27.02,SSE,148,4.9,5.8,36,0.00,,---,0.00,VWS V14.01,2013-01-01 17:26:00,
2013-01-01 11:31:00,72.9,50.7,27.02,East,83,4.9,6.3,36,0.00,,---,0.00,VWS V14.01,2013-01-01 17:31:00,
2013-01-01 11:36:00,72.9,50.7,27.02,East,82,11.0,11.0,36,0.00,,---,0.00,VWS V14.01,2013-01-01 17:36:00,
2013-01-01 11:41:00,72.9,50.7,27.02,SE,141,5.4,7.6,36,0.00,,---,0.00,VWS V14.01,2013-01-01 17:41:00,
2013-01-01 11:46:00,72.9,50.7,27.02,SE,133,8.7,8.7,36,0.00,,---,0.00,VWS V14.01,2013-01-01 17:46:00,
2013-01-01 11:51:00,72.9,50.7,27.02,NNE,26,4.9,9.6,36,0.00,,---,0.00,VWS V14.01,2013-01-01 17:51:00,
2013-01-01 11:56:00,72.9,50.7,26.99,East,86,3.6,11.9,36,0.00,,---,0.00,VWS V14.01,2013-01-01 17:56:00,
2013-01-01 12:01:00,72.9,50.7,26.99,SE,129,8.3,8.3,36,0.00,,---,0.00,VWS V14.01,2013-01-01 18:01:00,
2013-01-01 12:06:00,72.9,50.7,26.99,East,98,11.9,15.9,36,0.00,,---,0.00,VWS V14.01,2013-01-01 18:06:00,
2013-01-01 12:11:00,72.9,50.7,27.02,SE,124,8.7,8.7,36,0.00,,---,0.00,VWS V14.01,2013-01-01 18:11:00,
2013-01-01 12:16:00,72.9,50.7,27.02,East,87,5.4,6.3,36,0.00,,---,0.00,VWS V14.01,2013-01-01 18:16:00,
2013-01-01 12:21:00,72.9,50.7,27.02,SSE,160,5.4,8.3,36,0.00,,---,0.00,VWS V14.01,2013-01-01 18:21:00,
2013-01-01 12:26:00,72.9,50.7,26.99,ESE,115,6.3,10.5,36,0.00,,---,0.00,VWS V14.01,2013-01-01 18:26:00,
2013-01-01 12:31:00,72.9,50.7,26.99,East,87,3.6,9.2,36,0.00,,---,0.00,VWS V14.01,2013-01-01 18:31:00,
2013-01-01 12:36:00,72.9,50.7,26.99,ESE,120,9.2,9.2,36,0.00,,---,0.00,VWS V14.01,2013-01-01 18:36:00,
2013-01-01 12:41:00,72.9,50.7,26.99,ESE,110,4.0,5.8,36,0.00,,---,0.00,VWS V14.01,2013-01-01 18:41:00,
2013-01-01 12:46:00,72.9,50.7,26.99,East,101,6.3,6.3,36,0.00,,---,0.00,VWS V14.01,2013-01-01 18:46:00,
2013-01-01 12:51:00,72.9,50.7,26.99,ESE,115,4.0,5.4,36,0.00,,---,0.00,VWS V14.01,2013-01-01 18:51:00,
2013-01-01 12:56:00,72.9,50.7,26.99,SE,146,2.7,5.8,36,0.00,,---,0.00,VWS V14.01,2013-01-01 18:56:00,
2013-01-01 13:01:00,72.9,50.7,26.99,East,80,5.4,8.3,36,0.00,,---,0.00,VWS V14.01,2013-01-01 19:01:00,
2013-01-01 13:06:00,72.9,50.7,26.99,SSE,157,5.8,5.8,36,0.00,,---,0.00,VWS V14.01,2013-01-01 19:06:00,
2013-01-01 13:11:00,72.9,50.7,26.99,East,90,4.0,8.7,36,0.00,,---,0.00,VWS V14.01,2013-01-01 19:11:00,
2013-01-01 13:16:00,72.9,50.7,26.99,ESE,109,5.4,5.8,36,0.00,,---,0.00,VWS V14.01,2013-01-01 19:16:00,
2013-01-01 13:21:00,72.9,50.7,26.99,NE,55,13.2,13.2,36,0.00,,---,0.00,VWS V14.01,2013-01-01 19:21:00,
2013-01-01 13:26:00,72.9,50.7,26.99,ESE,115,12.3,12.3,36,0.00,,---,0.00,VWS V14.01,2013-01-01 19:26:00,
2013-01-01 13:31:00,72.9,50.7,26.99,ENE,71,8.1,8.3,36,0.00,,---,0.00,VWS V14.01,2013-01-01 19:31:00,
2013-01-01 13:36:00,72.9,50.7,26.99,SE,135,4.0,12.8,36,0.00,,---,0.00,VWS V14.01,2013-01-01 19:36:00,
2013-01-01 13:41:00,72.9,50.7,26.99,ENE,69,3.6,11.0,36,0.00,,---,0.00,VWS V14.01,2013-01-01 19:41:00,
2013-01-01 13:46:00,72.9,50.7,26.99,East,97,8.1,12.8,36,0.00,,---,0.00,VWS V14.01,2013-01-01 19:46:00,
2013-01-01 13:51:00,72.9,50.7,26.99,East,85,8.1,8.1,36,0.00,,---,0.00,VWS V14.01,2013-01-01 19:51:00,
2013-01-01 13:56:00,72.9,50.7,26.96,East,99,5.4,8.7,36,0.00,,---,0.00,VWS V14.01,2013-01-01 19:56:00,
2013-01-01 14:01:00,72.9,50.7,26.96,SSE,163,2.7,6.3,36,0.00,,---,0.00,VWS V14.01,2013-01-01 20:01:00,
2013-01-01 14:06:00,72.9,50.7,26.96,SE,127,4.0,6.7,36,0.00,,---,0.00,VWS V14.01,2013-01-01 20:06:00,
2013-01-01 14:11:00,72.9,50.7,26.96,SE,128,3.6,6.3,36,0.00,,---,0.00,VWS V14.01,2013-01-01 20:11:00,
2013-01-01 14:16:00,72.9,50.7,26.96,SSE,156,4.0,5.4,36,0.00,,---,0.00,VWS V14.01,2013-01-01 20:16:00,
2013-01-01 14:21:00,72.9,50.7,26.96,East,96,5.8,6.3,36,0.00,,---,0.00,VWS V14.01,2013-01-01 20:21:00,
2013-01-01 14:26:00,72.9,50.7,26.96,East,86,6.3,7.6,36,0.00,,---,0.00,VWS V14.01,2013-01-01 20:26:00,
2013-01-01 14:31:00,72.9,50.7,26.96,East,79,3.1,5.8,36,0.00,,---,0.00,VWS V14.01,2013-01-01 20:31:00,
2013-01-01 14:36:00,72.9,50.7,26.96,ESE,108,8.1,9.2,36,0.00,,---,0.00,VWS V14.01,2013-01-01 20:36:00,
2013-01-01 14:41:00,72.9,50.7,26.96,East,80,4.0,7.6,36,0.00,,---,0.00,VWS V14.01,2013-01-01 20:41:00,
2013-01-01 14:46:00,72.9,50.7,26.96,ESE,120,5.8,8.1,36,0.00,,---,0.00,VWS V14.01,2013-01-01 20:46:00,
2013-01-01 14:51:00,72.9,50.7,26.96,ESE,113,3.6,10.1,36,0.00,,---,0.00,VWS V14.01,2013-01-01 20:51:00,
2013-01-01 14:56:00,72.9,50.7,26.96,ESE,117,7.6,7.6,36,0.00,,---,0.00,VWS V14.01,2013-01-01 20:56:00,
2013-01-01 15:01:00,72.9,50.7,26.96,SE,137,5.8,8.1,36,0.00,,---,0.00,VWS V14.01,2013-01-01 21:01:00,
2013-01-01 15:06:00,72.9,50.7,26.96,SE,130,3.6,7.6,36,0.00,,---,0.00,VWS V14.01,2013-01-01 21:06:00,
2013-01-01 15:11:00,72.9,50.7,26.96,ESE,106,4.0,8.3,36,0.00,,---,0.00,VWS V14.01,2013-01-01 21:11:00,
2013-01-01 15:16:00,72.9,50.7,26.96,ENE,78,5.4,5.8,36,0.00,,---,0.00,VWS V14.01,2013-01-01 21:16:00,
2013-01-01 15:21:00,72.9,50.7,26.96,East,87,5.4,6.3,36,0.00,,---,0.00,VWS V14.01,2013-01-01 21:21:00,
2013-01-01 15:26:00,72.9,50.7,26.96,ESE,110,5.4,8.7,36,0.00,,---,0.00,VWS V14.01,2013-01-01 21:26:00,
2013-01-01 15:31:00,72.9,50.7,26.96,ESE,113,8.1,8.1,36,0.00,,---,0.00,VWS V14.01,2013-01-01 21:31:00,
2013-01-01 15:36:00,72.9,50.7,26.96,SE,129,4.0,6.3,36,0.00,,---,0.00,VWS V14.01,2013-01-01 21:36:00,
2013-01-01 15:41:00,72.9,50.7,26.96,SE,125,4.0,8.3,36,0.00,,---,0.00,VWS V14.01,2013-01-01 21:41:00,
2013-01-01 15:46:00,72.9,50.7,26.96,ESE,111,5.4,10.5,36,0.00,,---,0.00,VWS V14.01,2013-01-01 21:46:00,
2013-01-01 15:51:00,72.9,50.7,26.96,SE,129,3.6,6.3,36,0.00,,---,0.00,VWS V14.01,2013-01-01 21:51:00,
2013-01-01 15:56:00,72.9,50.7,26.96,NE,49,10.1,10.1,36,0.00,,---,0.00,VWS V14.01,2013-01-01 21:56:00,
2013-01-01 16:01:00,72.9,50.7,26.96,SE,129,4.0,7.6,36,0.00,,---,0.00,VWS V14.01,2013-01-01 22:01:00,
2013-01-01 16:06:00,72.9,50.7,26.96,ESE,114,3.1,3.1,36,0.00,,---,0.00,VWS V14.01,2013-01-01 22:06:00,
2013-01-01 16:11:00,72.9,50.7,26.96,East,101,8.1,11.0,36,0.00,,---,0.00,VWS V14.01,2013-01-01 22:11:00,
2013-01-01 16:16:00,72.9,50.7,26.96,SSE,150,8.1,8.1,36,0.00,,---,0.00,VWS V14.01,2013-01-01 22:16:00,
2013-01-01 16:21:00,72.9,50.7,26.96,SE,129,6.3,8.1,36,0.00,,---,0.00,VWS V14.01,2013-01-01 22:21:00,
2013-01-01 16:26:00,72.9,50.7,26.96,SE,136,4.0,6.7,36,0.00,,---,0.00,VWS V14.01,2013-01-01 22:26:00,
2013-01-01 16:31:00,72.9,50.7,26.96,SE,135,6.3,6.3,36,0.00,,---,0.00,VWS V14.01,2013-01-01 22:31:00,
2013-01-01 16:36:00,72.9,50.7,26.96,SE,125,10.1,10.1,36,0.00,,---,0.00,VWS V14.01,2013-01-01 22:36:00,
2013-01-01 16:41:00,72.9,50.7,26.96,SSE,148,3.1,8.7,36,0.00,,---,0.00,VWS V14.01,2013-01-01 22:41:00,
2013-01-01 16:46:00,72.9,50.7,26.96,East,79,5.8,6.3,36,0.00,,---,0.00,VWS V14.01,2013-01-01 22:46:00,
2013-01-01 16:51:00,72.9,50.7,26.96,ESE,114,7.2,7.2,36,0.00,,---,0.00,VWS V14.01,2013-01-01 22:51:00,
2013-01-01 16:56:00,72.9,50.7,26.96,ESE,112,8.7,10.5,36,0.00,,---,0.00,VWS V14.01,2013-01-01 22:56:00,
2013-01-01 17:01:00,72.9,50.7,26.96,SE,135,3.1,10.1,36,0.00,,---,0.00,VWS V14.01,2013-01-01 23:01:00,
2013-01-01 17:06:00,72.9,50.7,26.96,SSE,153,5.8,6.3,36,0.00,,---,0.00,VWS V14.01,2013-01-01 23:06:00,
2013-01-01 17:11:00,72.9,50.7,26.99,ESE,120,8.7,8.7,36,0.00,,---,0.00,VWS V14.01,2013-01-01 23:11:00,
2013-01-01 17:16:00,72.9,50.7,26.99,SE,136,6.7,6.7,36,0.00,,---,0.00,VWS V14.01,2013-01-01 23:16:00,
2013-01-01 17:21:00,72.9,50.7,26.99,SE,133,5.8,5.8,36,0.00,,---,0.00,VWS V14.01,2013-01-01 23:21:00,
2013-01-01 17:26:00,72.9,50.7,26.96,SE,132,6.3,8.3,36,0.00,,---,0.00,VWS V14.01,2013-01-01 23:26:00,
2013-01-01 17:31:00,72.9,50.7,26.96,SE,138,5.8,5.8,36,0.00,,---,0.00,VWS V14.01,2013-01-01 23:31:00,
2013-01-01 17:36:00,72.9,50.7,26.96,SSE,153,8.1,8.1,36,0.00,,---,0.00,VWS V14.01,2013-01-01 23:36:00,
2013-01-01 17:41:00,72.9,50.7,26.99,East,89,8.3,8.3,36,0.00,,---,0.00,VWS V14.01,2013-01-01 23:41:00,
2013-01-01 17:45:00,72.9,50.7,26.99,East,88,3.6,5.4,36,0.00,,---,0.00,VWS V14.01,2013-01-01 23:45:00,
2013-01-01 17:51:00,72.9,50.7,26.99,East,98,6.3,6.3,36,0.00,,---,0.00,VWS V14.01,2013-01-01 23:51:00,
2013-01-01 17:56:00,72.9,50.7,26.96,SE,145,3.6,8.3,36,0.00,,---,0.00,VWS V14.01,2013-01-01 23:56:00,
2013-01-01 18:01:00,72.9,50.7,26.96,ESE,121,5.8,8.1,36,0.00,,---,0.00,VWS V14.01,2013-01-02 00:01:00,
2013-01-01 18:05:00,72.9,50.7,26.96,SE,126,3.6,4.0,36,0.00,,---,0.00,VWS V14.01,2013-01-02 00:05:00,
2013-01-01 18:10:00,72.9,50.7,26.99,SE,136,4.0,4.0,36,0.00,,---,0.00,VWS V14.01,2013-01-02 00:10:00,
2013-01-01 18:15:00,72.9,50.7,26.99,SSE,151,5.4,7.2,36,0.00,,---,0.00,VWS V14.01,2013-01-02 00:15:00,
2013-01-01 18:20:00,72.9,50.7,26.99,ESE,115,12.3,12.3,36,0.00,,---,0.00,VWS V14.01,2013-01-02 00:20:00,
2013-01-01 18:25:00,72.9,50.7,26.99,East,93,8.7,8.7,36,0.00,,---,0.00,VWS V14.01,2013-01-02 00:25:00,
2013-01-01 18:30:00,72.9,50.7,26.99,SSE,155,6.3,6.3,36,0.00,,---,0.00,VWS V14.01,2013-01-02 00:30:00,
2013-01-01 18:35:00,72.9,50.7,26.99,ESE,111,5.8,5.8,36,0.00,,---,0.00,VWS V14.01,2013-01-02 00:35:00,
2013-01-01 18:40:00,72.9,50.7,26.99,ESE,109,3.6,4.0,36,0.00,,---,0.00,VWS V14.01,2013-01-02 00:40:00,
2013-01-01 18:45:00,72.9,50.7,26.99,ESE,118,3.6,9.2,36,0.00,,---,0.00,VWS V14.01,2013-01-02 00:45:00,
2013-01-01 18:50:00,72.9,50.7,26.99,East,89,4.0,4.0,36,0.00,,---,0.00,VWS V14.01,2013-01-02 00:50:00,
2013-01-01 18:55:00,72.9,50.7,26.99,ESE,103,5.8,5.8,36,0.00,,---,0.00,VWS V14.01,2013-01-02 00:55:00,
2013-01-01 19:00:00,72.9,50.7,26.99,ESE,109,6.3,8.1,36,0.00,,---,0.00,VWS V14.01,2013-01-02 01:00:00,
2013-01-01 19:05:00,72.9,50.7,26.99,East,91,5.4,5.4,36,0.00,,---,0.00,VWS V14.01,2013-01-02 01:05:00,
2013-01-01 19:10:00,72.9,50.7,26.99,ESE,105,5.8,5.8,36,0.00,,---,0.00,VWS V14.01,2013-01-02 01:10:00,
2013-01-01 19:15:00,72.9,50.7,26.99,ESE,112,4.9,6.3,36,0.00,,---,0.00,VWS V14.01,2013-01-02 01:15:00,
2013-01-01 19:20:00,72.9,50.7,26.99,East,81,5.8,10.1,36,0.00,,---,0.00,VWS V14.01,2013-01-02 01:20:00,
2013-01-01 19:25:00,72.9,50.7,26.99,SSE,147,3.6,8.3,36,0.00,,---,0.00,VWS V14.01,2013-01-02 01:25:00,
2013-01-01 19:30:00,72.9,50.7,26.99,SE,143,3.1,8.3,36,0.00,,---,0.00,VWS V14.01,2013-01-02 01:30:00,
2013-01-01 19:35:00,72.9,50.7,26.99,SE,144,6.3,10.1,36,0.00,,---,0.00,VWS V14.01,2013-01-02 01:35:00,
2013-01-01 19:40:00,72.9,50.7,26.99,ESE,114,11.0,11.0,36,0.00,,---,0.00,VWS V14.01,2013-01-02 01:40:00,
2013-01-01 19:45:00,72.9,50.7,26.99,SE,144,4.0,8.3,36,0.00,,---,0.00,VWS V14.01,2013-01-02 01:45:00,
2013-01-01 19:50:00,72.9,50.7,26.99,East,91,6.3,8.1,36,0.00,,---,0.00,VWS V14.01,2013-01-02 01:50:00,
2013-01-01 19:55:00,72.9,50.7,26.99,East,99,4.0,4.0,36,0.00,,---,0.00,VWS V14.01,2013-01-02 01:55:00,
2013-01-01 20:00:00,72.9,50.7,26.99,SE,128,7.2,7.2,36,0.00,,---,0.00,VWS V14.01,2013-01-02 02:00:00,
2013-01-01 20:05:00,72.9,50.7,26.99,SE,145,8.3,8.3,36,0.00,,---,0.00,VWS V14.01,2013-01-02 02:05:00,
2013-01-01 20:10:00,72.9,50.7,26.99,South,174,4.0,4.9,36,0.00,,---,0.00,VWS V14.01,2013-01-02 02:10:00,
2013-01-01 20:15:00,72.9,50.7,26.99,South,173,3.6,4.0,36,0.00,,---,0.00,VWS V14.01,2013-01-02 02:15:00,
2013-01-01 20:20:00,72.9,50.7,26.99,SW,219,5.8,6.3,36,0.00,,---,0.00,VWS V14.01,2013-01-02 02:20:00,
2013-01-01 20:25:00,72.9,50.7,26.99,SSE,164,15.0,15.0,36,0.00,,---,0.00,VWS V14.01,2013-01-02 02:25:00,
2013-01-01 20:30:00,72.9,50.7,26.99,NNE,20,5.8,8.7,36,0.00,,---,0.00,VWS V14.01,2013-01-02 02:30:00,
2013-01-01 20:35:00,72.9,50.7,26.99,NNE,33,5.4,8.1,36,0.00,,---,0.00,VWS V14.01,2013-01-02 02:35:00,
2013-01-01 20:40:00,72.9,50.7,26.99,SSW,203,4.0,4.0,36,0.00,,---,0.00,VWS V14.01,2013-01-02 02:40:00,
2013-01-01 20:45:00,72.9,50.7,26.99,East,82,6.3,10.5,36,0.00,,---,0.00,VWS V14.01,2013-01-02 02:45:00,
2013-01-01 20:50:00,72.9,50.7,26.99,SE,142,8.1,8.3,36,0.00,,---,0.00,VWS V14.01,2013-01-02 02:50:00,
2013-01-01 20:55:00,72.9,50.7,26.99,SSE,147,6.3,6.3,36,0.00,,---,0.00,VWS V14.01,2013-01-02 02:55:00,
2013-01-01 21:00:00,72.9,50.7,26.99,SE,143,8.1,8.1,36,0.00,,---,0.00,VWS V14.01,2013-01-02 03:00:00,
2013-01-01 21:05:00,72.9,50.7,26.99,ESE,116,3.1,3.1,36,0.00,,---,0.00,VWS V14.01,2013-01-02 03:05:00,
2013-01-01 21:10:00,72.9,50.7,27.02,SE,142,5.4,5.4,36,0.00,,---,0.00,VWS V14.01,2013-01-02 03:10:00,
2013-01-01 21:15:00,72.9,50.7,27.02,SE,130,3.1,3.1,36,0.00,,---,0.00,VWS V14.01,2013-01-02 03:15:00,
2013-01-01 21:20:00,72.9,50.7,27.02,SSE,161,3.6,5.4,36,0.00,,---,0.00,VWS V14.01,2013-01-02 03:20:00,
2013-01-01 21:25:00,72.9,50.7,26.99,SE,141,6.3,8.3,36,0.00,,---,0.00,VWS V14.01,2013-01-02 03:25:00,
2013-01-01 21:30:00,72.9,50.7,26.99,SE,130,5.8,5.8,36,0.00,,---,0.00,VWS V14.01,2013-01-02 03:30:00,
2013-01-01 21:35:00,72.9,50.7,26.99,WSW,241,7.6,7.6,36,0.00,,---,0.00,VWS V14.01,2013-01-02 03:35:00,
2013-01-01 21:40:00,72.9,50.7,26.99,East,95,4.9,4.9,36,0.00,,---,0.00,VWS V14.01,2013-01-02 03:40:00,
2013-01-01 21:45:00,72.9,50.7,26.99,SE,129,2.7,2.7,36,0.00,,---,0.00,VWS V14.01,2013-01-02 03:45:00,
2013-01-01 21:50:00,72.9,50.7,26.99,SSE,153,8.1,13.2,36,0.00,,---,0.00,VWS V14.01,2013-01-02 03:50:00,
2013-01-01 21:55:00,72.9,50.7,26.99,SE,138,5.8,7.6,36,0.00,,---,0.00,VWS V14.01,2013-01-02 03:55:00,
2013-01-01 22:00:00,72.9,50.7,26.99,SE,139,3.6,3.6,36,0.00,,---,0.00,VWS V14.01,2013-01-02 04:00:00,
2013-01-01 22:05:00,72.9,50.7,26.99,East,87,3.1,3.1,36,0.00,,---,0.00,VWS V14.01,2013-01-02 04:05:00,
2013-01-01 22:10:00,72.9,50.7,26.99,SE,137,6.3,6.3,36,0.00,,---,0.00,VWS V14.01,2013-01-02 04:10:00,
2013-01-01 22:15:00,72.9,50.7,26.99,SSW,192,5.4,8.3,36,0.00,,---,0.00,VWS V14.01,2013-01-02 04:15:00,
2013-01-01 22:20:00,72.9,50.7,26.99,SSE,147,13.2,13.2,36,0.00,,---,0.00,VWS V14.01,2013-01-02 04:20:00,
2013-01-01 22:25:00,72.9,50.7,26.99,East,84,5.4,8.1,36,0.00,,---,0.00,VWS V14.01,2013-01-02 04:25:00,
2013-01-01 22:30:00,72.9,50.7,26.99,SSE,157,13.6,15.0,36,0.00,,---,0.00,VWS V14.01,2013-01-02 04:30:00,
2013-01-01 22:35:00,72.9,50.7,26.99,SSE,166,3.6,5.4,36,0.00,,---,0.00,VWS V14.01,2013-01-02 04:35:00,
2013-01-01 22:40:00,72.9,50.7,26.99,NE,34,2.2,2.2,36,0.00,,---,0.00,VWS V14.01,2013-01-02 04:40:00,
2013-01-01 22:45:00,72.9,50.7,26.99,ENE,61,5.4,5.4,36,0.00,,---,0.00,VWS V14.01,2013-01-02 04:45:00,
2013-01-01 22:50:00,72.9,50.7,26.99,East,94,3.6,5.4,36,0.00,,---,0.00,VWS V14.01,2013-01-02 04:50:00,
2013-01-01 22:55:00,72.9,50.7,26.99,SSE,154,8.3,12.8,36,0.00,,---,0.00,VWS V14.01,2013-01-02 04:55:00,
2013-01-01 23:00:00,72.9,50.7,26.99,SSE,165,4.0,4.0,36,0.00,,---,0.00,VWS V14.01,2013-01-02 05:00:00,
2013-01-01 23:05:00,72.9,50.7,26.99,ESE,114,10.5,10.5,36,0.00,,---,0.00,VWS V14.01,2013-01-02 05:05:00,
2013-01-01 23:10:00,72.9,50.7,26.99,East,87,6.3,9.6,36,0.00,,---,0.00,VWS V14.01,2013-01-02 05:10:00,
2013-01-01 23:15:00,72.9,50.7,26.99,South,171,4.0,5.4,36,0.00,,---,0.00,VWS V14.01,2013-01-02 05:15:00,
2013-01-01 23:20:00,72.9,50.7,26.99,ENE,62,4.9,4.9,36,0.00,,---,0.00,VWS V14.01,2013-01-02 05:20:00,
2013-01-01 23:25:00,72.9,50.7,26.99,SSE,151,4.9,5.4,36,0.00,,---,0.00,VWS V14.01,2013-01-02 05:25:00,
2013-01-01 23:30:00,72.9,50.7,26.99,SSE,157,4.0,4.0,36,0.00,,---,0.00,VWS V14.01,2013-01-02 05:30:00,
2013-01-01 23:35:00,72.9,50.7,26.99,NE,37,5.4,8.7,36,0.00,,---,0.00,VWS V14.01,2013-01-02 05:35:00,
2013-01-01 23:40:00,72.9,50.7,26.99,South,181,5.8,5.8,36,0.00,,---,0.00,VWS V14.01,2013-01-02 05:40:00,
2013-01-01 23:45:00,72.9,50.7,26.99,SE,146,7.6,8.7,36,0.00,,---,0.00,VWS V14.01,2013-01-02 05:45:00,
2013-01-01 23:50:00,72.9,50.7,26.99,ESE,102,3.6,5.4,36,0.00,,---,0.00,VWS V14.01,2013-01-02 05:50:00,
2013-01-01 23:55:00,72.9,50.7,26.99,ESE,119,5.8,10.1,36,0.00,,---,0.00,VWS V14.01,2013-01-02 05:55:00,